sat.trackr.live / text

‹ back to catalog

RISAT-2BR2

NORAD 46905 · 2020-081A

PAYLOAD ACTIVE UNKNOWN

§ Identity

Operator
Country
IND
Launch date
2020-11-07
Launch site
SRILR
Launch vehicle
Mass (kg)
RCS (m²)

External: N2YO · Heavens-Above · Gunter

§ Orbital elements

Epoch: 2026-05-25T01:46:48.536832Z

Period
95.91 min
Inclination
36.9000°
Eccentricity
0.0011996
Mean motion
15.01461619 rev/d
Perigee alt
554.1 km
Apogee alt
570.7 km
Semi-major
6,940.5 km
B*
1.9323e-4
RAAN
1.5211°
Arg perigee
326.6460°
Mean anomaly
33.3525°
Rev number
30,399

§ Raw data

RISAT-2BR21 46905U 20081A   26145.07417288  .00002470  00000+0  19323-3 0  99932 46905  36.9000   1.5211 0011996 326.6460  33.3525 15.01461619303996

JSON: /api/v1/satellites/46905 · /tle

For live sub-satellite position, see the globe view (requires WebGL).

§ Visibility from observer

Set your observer location to see the next 7 days of passes ≥ 10°. The values pass through the URL so the page stays shareable.

No JS? Fill the form by hand. The geolocation button needs JavaScript.

§ Radio — SatNOGS DB

ModeDescriptionDownlinkUplink
FM S-band telemetry 2.250 GHz

1 transmitter · refreshed weekly from db.satnogs.org